Location: Apollinopolis Magna
(24.9792°N, 32.8772°E)
Time: 10:27:22
(UTC+00:00)

Hubble Space Telescope - Pass Details

Date: 02 March 2021
Orbit: 535 x 539 km, 28.5° (Epoch: 15 April)

Event Time Altitude Azimuth Distance (km) Brightness Sun altitude
Rises 17:40:03 0° 244° (WSW) 2,661 5.2 -25.4°
Reaches altitude 10° 17:42:19 10° 241° (WSW) 1,773 4.1 -25.9°
Enters shadow 17:44:53 35° 226° (SW) 860 2.0 -26.5°
